{"data":{"norad_id":58598,"intl_designator":"2023-200K","name":"STARLINK-31079","alt_names":[],"object_type":"PAYLOAD","status":"ACTIVE","operator":null,"country":"US","launch_date":"2023-12-19","launch_site_code":"AFETR","launch_vehicle":null,"mission":null,"orbit_class":"UNKNOWN","rcs_meters":null,"size_class":null,"mass_kg":null,"dimensions":null,"purposes":["comms"],"wikipedia_slug":null,"has_3d_model":false,"image_url":null,"decayed_at":null,"tle_current":{"epoch":"2026-05-25T04:06:14.194368Z","epoch_age_seconds":70972,"freshness":"FRESH","line1":"1 58598U 23200K   26145.17099762  .00255487  00000+0  28738-2 0  9991","line2":"2 58598  42.9779  54.1930 0031929 201.3331 158.6203 15.60377388135804","mean_motion":15.60377388,"eccentricity":0.0031929,"inclination_deg":42.9779,"raan_deg":54.193,"arg_perigee_deg":201.3331,"mean_anomaly_deg":158.6203,"bstar":0.0028738,"rev_number":13580,"period_min":92.285367057626,"perigee_km":364.96711360186,"apogee_km":408.16515487648,"semimajor_km":6764.7031342392,"source":"CELESTRAK","updated_at":"2026-05-25T13:38:18.700073Z"}}}